Date String (YYYY-MM-DD hh:mm:ss) UTC,Instrument flags,absolute air pressure of the measurement (hPa),sample flow rate (lpm),inlet stack bypass flow (lpm),air temperature of the measurement (°C),ambient temperature measured by the external sensor (°C),aerosol sample conditioner tube jacket temperature (°C),OPC LED temperature (°C),internal box temperature (°C),relative humidity of the measurement (%),span deviation,mass concentration of particles derived from Lorenz-Mie calculation of OPC scattering (μg/m³),mass concentration of particles derived from Lorenz-Mie calculation of OPC scattering (μg/m³),mass concentration of particles derived from Lorenz-Mie calculation of OPC scattering (μg/m³)
DateTimeUTC,F1_M11,P_M11,Q1_M11,Q2_M11,T1_M11,T2_M11,T3_M11,T4_M11,T5_M11,U1_M11,ZSPAN_M11,X0_M11,X2_M11,X1_M11
2024-04-01 10:00:00,SystemResetWarning,0819.4,5.00,000.00,021.0,020.2,000.0,029.6,022.8,26.0,0000.0,0005.08,0002.96,0002.22
2024-04-01 10:01:00,SystemResetWarning,0819.5,4.99,000.00,021.0,020.2,000.0,029.6,022.8,26.0,0000.0,0005.65,0002.93,0002.22
2024-04-01 10:02:00,SystemResetWarning,0819.3,4.99,000.00,021.0,020.2,000.0,029.6,022.8,25.9,0000.0,0005.85,0002.96,0002.26
2024-04-01 10:03:00,SystemResetWarning,0819.3,5.01,000.00,021.0,020.2,000.0,029.6,022.8,25.9,0000.0,0006.51,0003.05,0002.32
2024-04-01 10:04:00,SystemResetWarning,0819.4,5.01,000.00,021.0,020.2,000.0,029.6,022.8,25.9,0000.0,0006.41,0003.04,0002.36
2024-04-01 10:05:00,SystemResetWarning,0819.4,4.99,000.00,021.0,020.2,000.0,029.6,022.8,25.8,0000.0,0006.21,0003.02,0002.39
2024-04-01 10:06:00,SystemResetWarning,0819.4,5.00,000.00,021.0,020.2,000.0,029.6,022.8,25.8,0000.0,0006.14,0002.99,0002.40
2024-04-01 10:07:00,SystemResetWarning,0819.4,5.02,000.00,021.0,020.2,000.0,029.6,022.8,25.7,0000.0,0006.04,0002.94,0002.38
2024-04-01 10:08:00,SystemResetWarning,0819.4,5.00,000.00,021.0,020.2,000.0,029.6,022.8,25.7,0000.0,0005.87,0002.88,0002.34
2024-04-01 10:09:00,SystemResetWarning,0819.5,4.99,000.00,021.0,020.2,000.0,029.6,022.8,25.7,0000.0,0005.63,0002.75,0002.27
2024-04-01 10:10:00,SystemResetWarning,0819.5,5.00,000.00,021.0,020.2,000.0,029.6,022.8,25.7,0000.0,0005.43,0002.65,0002.20
2024-04-01 10:11:00,SystemResetWarning,0819.5,5.00,000.00,020.9,020.2,000.0,029.6,022.7,25.7,0000.0,0005.23,0002.55,0002.14
2024-04-01 10:12:00,SystemResetWarning,0819.5,4.99,000.00,020.9,020.2,000.0,029.6,022.7,25.7,0000.0,0004.59,0002.45,0002.08
2024-04-01 10:13:00,SystemResetWarning,0819.6,5.00,000.00,020.9,020.1,000.0,029.6,022.7,25.7,0000.0,0003.69,0002.34,0001.98
2024-04-01 10:14:00,SystemResetWarning,0819.5,5.00,000.00,020.9,020.1,000.0,029.5,022.7,25.7,0000.0,0002.75,0002.13,0001.86
2024-04-01 10:15:00,SystemResetWarning,0819.5,5.00,000.00,020.9,020.1,000.0,029.5,022.7,25.7,0000.0,0002.53,0002.03,0001.77
2024-04-01 10:16:00,SystemResetWarning,0819.5,5.00,000.00,020.9,020.1,000.0,029.5,022.7,25.9,0000.0,0002.39,0001.92,0001.68
2024-04-01 10:17:00,SystemResetWarning,0819.5,5.00,000.00,020.9,020.1,000.0,029.5,022.7,26.5,0000.0,0002.23,0001.82,0001.61
2024-04-01 10:18:00,SystemResetWarning,0819.5,5.00,000.00,020.9,020.1,000.0,029.5,022.7,26.1,0000.0,0002.09,0001.73,0001.55
2024-04-01 10:19:00,SystemResetWarning,0819.6,5.00,000.00,020.9,020.1,000.0,029.5,022.7,25.9,0000.0,0002.04,0001.69,0001.53
2024-04-01 10:20:00,SystemResetWarning,0819.6,5.00,000.00,020.9,020.1,000.0,029.5,022.7,25.9,0000.0,0001.95,0001.66,0001.52
2024-04-01 10:21:00,SystemResetWarning,0819.9,5.00,000.00,020.9,020.1,000.0,029.5,022.7,25.9,0000.0,0001.91,0001.64,0001.51
2024-04-01 10:22:00,SystemResetWarning,0820.2,4.99,000.00,020.8,020.1,000.0,029.5,022.7,26.0,0000.0,0001.86,0001.62,0001.50
2024-04-01 10:23:00,SystemResetWarning,0819.9,5.00,000.00,020.8,020.1,000.0,029.5,022.6,26.1,0000.0,0001.80,0001.59,0001.48
2024-04-01 10:24:00,SystemResetWarning,0819.8,5.01,000.00,020.8,020.1,000.0,029.5,022.6,26.1,0000.0,0001.85,0001.59,0001.49
2024-04-01 10:25:00,SystemResetWarning,0819.7,5.01,000.00,020.8,020.1,000.0,029.5,022.6,26.2,0000.0,0001.91,0001.59,0001.50
2024-04-01 10:26:00,SystemResetWarning,0819.7,5.01,000.00,020.8,020.1,000.0,029.4,022.6,26.3,0000.0,0001.91,0001.61,0001.53
2024-04-01 10:27:00,SystemResetWarning,0819.8,5.00,000.00,020.8,020.1,000.0,029.4,022.6,26.3,0000.0,0001.99,0001.67,0001.57
2024-04-01 10:28:00,SystemResetWarning,0819.8,4.99,000.00,020.8,020.1,000.0,029.4,022.6,26.3,0000.0,0002.10,0001.73,0001.60
2024-04-01 10:29:00,SystemResetWarning,0819.8,5.00,000.00,020.8,020.1,000.0,029.4,022.6,26.3,0000.0,0002.17,0001.78,0001.62
2024-04-01 10:30:00,SystemResetWarning,0819.7,5.00,000.00,020.8,020.1,000.0,029.4,022.6,26.4,0000.0,0002.16,0001.79,0001.63
2024-04-01 10:31:00,SystemResetWarning,0819.9,4.99,000.00,020.8,020.1,000.0,029.4,022.6,26.5,0000.0,0002.19,0001.81,0001.64
2024-04-01 10:32:00,SystemResetWarning,0819.8,4.99,000.00,020.8,020.1,000.0,029.4,022.6,26.5,0000.0,0002.25,0001.84,0001.66
2024-04-01 10:33:00,SystemResetWarning,0819.7,5.01,000.00,020.8,020.1,000.0,029.4,022.6,26.5,0000.0,0002.31,0001.86,0001.66
2024-04-01 10:34:00,SystemResetWarning,0819.9,5.00,000.00,020.8,020.1,000.0,029.4,022.6,26.6,0000.0,0002.39,0001.89,0001.68
2024-04-01 10:35:00,SystemResetWarning,0819.8,5.00,000.00,020.8,020.1,000.0,029.4,022.6,26.6,0000.0,0002.44,0001.93,0001.71
2024-04-01 10:36:00,SystemResetWarning,0819.9,5.00,000.00,020.8,020.0,000.0,029.4,022.6,26.6,0000.0,0002.38,0001.96,0001.73
2024-04-01 10:37:00,SystemResetWarning,0820.1,5.00,000.00,020.8,020.1,000.0,029.4,022.6,26.6,0000.0,0002.46,0002.01,0001.77
2024-04-01 10:38:00,SystemResetWarning,0820.1,5.00,000.00,020.8,020.1,000.0,029.4,022.6,26.6,0000.0,0002.46,0002.02,0001.81
2024-04-01 10:39:00,SystemResetWarning,0819.9,5.00,000.00,020.8,020.0,000.0,029.4,022.6,26.6,0000.0,0002.46,0002.04,0001.83
2024-04-01 10:40:00,SystemResetWarning,0819.9,5.01,000.00,020.8,020.1,000.0,029.4,022.6,26.6,0000.0,0002.45,0002.03,0001.85
2024-04-01 10:41:00,SystemResetWarning,0819.7,4.99,000.00,020.8,020.1,000.0,029.4,022.6,26.7,0000.0,0002.46,0002.02,0001.86
2024-04-01 10:42:00,SystemResetWarning,0819.8,5.00,000.00,020.8,020.1,000.0,029.4,022.6,26.7,0000.0,0002.47,0002.02,0001.86
2024-04-01 10:43:00,SystemResetWarning,0819.8,4.99,000.00,020.8,020.1,000.0,029.4,022.6,26.6,0000.0,0002.52,0002.03,0001.86
2024-04-01 10:44:00,SystemResetWarning,0819.8,5.01,000.00,020.8,020.1,000.0,029.4,022.6,26.7,0000.0,0002.55,0002.04,0001.86
2024-04-01 10:45:00,SystemResetWarning,0819.9,5.00,000.00,020.8,020.1,000.0,029.4,022.6,26.7,0000.0,0002.50,0002.02,0001.85
2024-04-01 10:46:00,SystemResetWarning,0819.8,5.00,000.00,020.8,020.1,000.0,029.4,022.6,26.7,0000.0,0002.45,0001.99,0001.83
2024-04-01 10:47:00,SystemResetWarning,0819.8,5.01,000.00,020.8,020.1,000.0,029.3,022.6,26.7,0000.0,0002.43,0001.98,0001.82
2024-04-01 10:48:00,SystemResetWarning,0819.8,5.00,000.00,020.8,020.1,000.0,029.3,022.6,27.1,0000.0,0002.40,0001.96,0001.78
2024-04-01 10:49:00,SystemResetWarning,0819.7,4.99,000.00,020.8,020.1,000.0,029.3,022.6,27.2,0000.0,0002.37,0001.91,0001.73
2024-04-01 10:50:00,SystemResetWarning,0820.1,4.99,000.00,020.8,020.1,000.0,029.3,022.6,26.8,0000.0,0002.41,0001.91,0001.69
2024-04-01 10:51:00,SystemResetWarning,0820.1,4.99,000.00,020.8,020.0,000.0,029.3,022.6,26.7,0000.0,0002.38,0001.88,0001.66
2024-04-01 10:52:00,SystemResetWarning,0819.9,5.00,000.00,020.8,020.0,000.0,029.3,022.6,26.7,0000.0,0002.40,0001.87,0001.64
2024-04-01 10:53:00,SystemResetWarning,0819.8,5.00,000.00,020.7,020.0,000.0,029.3,022.6,26.6,0000.0,0002.38,0001.85,0001.61
2024-04-01 10:54:00,SystemResetWarning,0820.0,5.01,000.00,020.7,020.0,000.0,029.3,022.5,26.6,0000.0,0002.29,0001.80,0001.58
2024-04-01 10:55:00,SystemResetWarning,0820.1,5.00,000.00,020.7,019.9,000.0,029.3,022.5,26.5,0000.0,0002.14,0001.72,0001.52
2024-04-01 10:56:00,SystemResetWarning,0820.1,4.99,000.00,020.7,019.9,000.0,029.3,022.5,26.5,0000.0,0002.13,0001.69,0001.49
2024-04-01 10:57:00,SystemResetWarning,0819.8,5.00,000.00,020.7,019.9,000.0,029.3,022.5,26.4,0000.0,0002.11,0001.65,0001.47
2024-04-01 10:58:00,SystemResetWarning,0819.8,5.00,000.00,020.7,019.9,000.0,029.3,022.5,26.4,0000.0,0002.12,0001.61,0001.43
2024-04-01 10:59:00,SystemResetWarning,0819.9,4.99,000.00,020.7,019.8,000.0,029.3,022.5,26.5,0000.0,0002.11,0001.58,0001.41
